CZ-4C DEB, 44617

Orbit data source: Space-Track

CZ-4C DEB, 44617 is space debris in LEO originally from a launch on Tue, 10 Apr 2018 UTC launched from the Taiyaun Space Center, China (TSC). Debris objects in space refer to the collection of defunct objects orbiting the Earth. Examples of debris include non-operational satellites, rocket bodies, and fragments generated from explosions, collisions, or faulty payload assembly.

Loading next visibility...
Identifier
44617, 2018-034J
Orbit
LEO
Last TLE update
1 day ago
Origin
Manufacturer
Unknown
Mission
Spacecraft
Bus & Motor
Unknown
Mass
Unknown
Launch date (UTC)
2018-04-10 (7 years ago)
Launch vehicle
Unknown
Launch site
Taiyaun Space Center, China (TSC)
Object type
Payload
Rocket body
Debris
Shape & HBR
Unknown
Radar Cross Section
Small (<0.1 m²)

Expand to show TLE details & history

TLE from 1 day ago
0 CZ-4C DEB
1 44617U 18034J   25191.00106653 -.00000086  00000-0  52516-5 0  9996
2 44617  63.4008 303.5770 0221974   6.5792 353.8062 13.40988141348353
Epoch: 2025-07-10T00:01Z
TLE epoch observation values (Epoch: 2025-07-10T00:01:32.148Z)
Latitude
-0.00004°
Longitude
15.01941°
Altitude
942.242 km
Speed
7.462 km/s
True Right ascension
20h 14m 18s
True Declination
0° 00' 00"
Sunlit
Object was in full shadow at epoch
Visualization orbit readout
Latitude
0.45528°
Longitude
12.39291°
Altitude
942.033 km
Speed
7.462 km/s
Apparent Right ascension
22h 37m 10s
Apparent Declination
-27° 54' 10"
Sunlit
Object is in full shadow
Visualization observer readout
Local Sidereal Time
15:09:03
Azimuth
100.122° ESE
Elevation
-33.676°
Doppler factor
1
Orbital elements
Apogee altitude
1,270.525 km
Perigee altitude
938.338 km
Semi-major axis
7,482.569 km
Eccentricity
0.0222
Inclination
63.4008°
RAAN
303.577°
Arg. of periapsis
6.5792°
True anomaly
Unknown
Mean anomaly
353.8062°
Eccentric anomaly
Unknown
Mean motion
3.35326 °/min
Orbital period
107.36 mins
BSTAR
0.0000052516
Loading maneuver chart data...
Loading SW <> Apogee altitude chart data...
Loading historical data...
Loading historical data...
Loading historical data...
Loading historical data...
Loading historical data...
Loading historical data...
Loading historical data...

CZ-4C DEB Visibility forecast

Observer location: undefined°, undefined°

Span
Click to sort rows by Start time (UTC) header in descending order
Start Az.
Max El. time (UTC)
Max El. Az.
Max El.
End time (UTC)
End Az.
10 mins2025-07-11 08:21:25.922Z174.18° S2025-07-11 08:26:25.922Z106.134° ESE30.783°2025-07-11 08:31:25.922Z50.888° ENE
10 mins2025-07-11 10:12:25.922Z250.686° W2025-07-11 10:16:25.922Z303.772° NW33.013°2025-07-11 10:22:25.922Z20.881° NNE
4 mins2025-07-11 12:08:25.922Z325.808° NNW2025-07-11 12:09:25.922Z335.276° NNW12.308°2025-07-11 12:12:25.922Z2.439° NNE
9 mins2025-07-11 15:54:25.922Z355.578° N2025-07-11 15:58:25.922Z36.142° NE21.114°2025-07-11 16:03:25.922Z81.535° E
13 mins2025-07-11 17:44:25.922Z328.39° NNW2025-07-11 17:50:25.922Z62.353° ENE44.718°2025-07-11 17:57:25.922Z143.701° SSE
8 mins2025-07-11 19:37:25.922Z283.188° WNW2025-07-11 19:40:25.922Z254.625° W19.65°2025-07-11 19:45:25.922Z211.143° SW
|